Location: Borojevi?i
(45.0486°N, 16.2297°E)
Time: 06:34:27
(UTC+00:00)

Cosmos 1833 Rocket - Pass Details

Date: 08 August 2020
Orbit: 831 x 841 km, 71.0° (Epoch: 23 September)

Event Time Altitude Azimuth Distance (km) Brightness Sun altitude
Rises 19:08:54 0° 188° (S) 3,360 5.6 -9.7°
Reaches altitude 10° 19:11:23 10° 183° (S) 2,432 4.8 -10.0°
Maximum altitude 19:16:45 51° 109° (ESE) 1,038 2.8 -10.8°
Drops below altitude 10° 19:22:11 10° 35° (NE) 2,454 5.1 -11.6°
Sets 19:24:41 0° 30° (NNE) 3,394 5.9 -11.9°
